GW0603 Weather Reports


time (UTC)temp
C
wind
direction
speed
KPH
gust
KPH
rain 1hr
cm
rain 24hr
cm
rain mn
cm
humidity
%
barometer
mb
20260505063055 12 223 1.6 6.4 0.00 0.00 0.00 62 1014.0
20260505061609 12 219 1.6 6.4 0.00 0.00 0.00 60 1014.2
20260505060104 12 232 3.2 9.7 0.00 0.00 0.00 59 1014.1
20260505054626 12 229 1.6 9.7 0.00 0.00 0.00 59 1014.2
20260505053107 13 220 3.2 9.7 0.00 0.00 0.00 57 1014.1
20260505051554 13 192 3.2 8.0 0.00 0.00 0.00 56 1014.1
20260505041558 15 210 1.6 8.0 0.00 0.00 0.00 50 1014.2
20260505040058 15 219 3.2 14.5 0.00 0.00 0.00 49 1014.2
20260505034553 16 196 4.8 14.5 0.00 0.00 0.00 48 1014.3
20260505033056 16 178 3.2 9.7 0.00 0.00 0.00 48 1014.4
20260505031609 16 213 1.6 9.7 0.00 0.00 0.00 48 1014.4
20260505030104 15 180 3.2 8.0 0.00 0.00 0.00 50 1014.5
20260505024557 15 229 0.0 3.2 0.00 0.00 0.00 51 1014.4
20260505023119 16 228 0.0 8.0 0.00 0.00 0.00 46 1014.4
20260505021555 17 0 0.0 12.9 0.00 0.00 0.00 44 1014.2
20260505020054 17 217 4.8 16.1 0.00 0.00 0.00 42 1014.1
20260505014608 18 234 4.8 9.7 0.00 0.00 0.00 42 1014.0
20260505013108 18 148 4.8 14.5 0.00 0.00 0.00 41 1013.8
20260505011557 18 124 3.2 14.5 0.00 0.00 0.00 40 1013.7
20260505004558 18 180 3.2 14.5 0.00 0.00 0.00 39 1013.4
20260505003057 18 150 3.2 11.3 0.00 0.00 0.00 38 1013.2
20260505001556 19 167 3.2 11.3 0.00 0.00 0.00 36 1013.2
20260505000114 19 183 3.2 8.0 0.00 0.00 0.00 35 1013.2
20260504234555 20 201 1.6 17.7 0.00 0.00 0.00 34 1013.2
20260504233059 20 157 6.4 16.1 0.00 0.00 0.00 33 1013.1
20260504231555 21 170 4.8 17.7 0.00 0.00 0.00 33 1013.1
20260504230107 21 187 9.7 24.1 0.00 0.00 0.00 34 1012.9
20260504224558 22 183 8.0 17.7 0.00 0.00 0.00 34 1012.7
20260504223105 22 223 6.4 24.1 0.00 0.00 0.00 34 1012.8
20260504221604 22 185 6.4 17.7 0.00 0.00 0.00 33 1012.8
20260504220101 22 207 6.4 20.9 0.00 0.00 0.00 32 1012.7
20260504214558 22 217 8.0 19.3 0.00 0.00 0.00 32 1012.8
20260504213104 22 184 11.3 24.1 0.00 0.00 0.00 31 1012.8
20260504211619 23 161 8.0 22.5 0.00 0.00 0.00 31 1012.7
20260504210058 24 204 4.8 17.7 0.00 0.00 0.00 29 1012.7
20260504204602 23 151 8.0 16.1 0.00 0.00 0.00 29 1012.8
20260504203109 24 203 8.0 20.9 0.00 0.00 0.00 30 1013.0
20260504201600 23 161 4.8 16.1 0.00 0.00 0.00 29 1013.3
20260504200057 24 196 1.6 16.1 0.00 0.00 0.00 29 1013.3
20260504194556 23 169 8.0 19.3 0.00 0.00 0.00 29 1013.3
20260504193055 23 14 8.0 20.9 0.00 0.00 0.00 30 1013.5
20260504191607 23 170 4.8 20.9 0.00 0.00 0.00 31 1013.9
20260504190107 23 31 3.2 17.7 0.00 0.00 0.00 32 1014.1
20260504184605 23 161 3.2 19.3 0.00 0.00 0.00 33 1014.3
20260504183105 23 127 3.2 17.7 0.00 0.00 0.00 31 1014.6
20260504181601 22 222 3.2 17.7 0.00 0.00 0.00 32 1014.7
20260504180107 22 133 4.8 14.5 0.00 0.00 0.00 32 1014.9
20260504174556 22 202 4.8 14.5 0.00 0.00 0.00 33 1015.1
20260504173056 21 167 8.0 19.3 0.00 0.00 0.00 34 1014.9
20260504171556 22 192 6.4 14.5 0.00 0.00 0.00 34 1014.9
20260504160104 21 209 3.2 12.9 0.00 0.00 0.00 35 1016.1
20260504081608 3 0 0.0 3.2 0.00 0.00 0.00 87 1016.2
20260504080111 3 0 0.0 0.0 0.00 0.00 0.00 85 1016.1